sat.trackr.live / text

‹ back to catalog

STARLINK-3057

NORAD 49139 · 2021-082K

PAYLOAD ACTIVE UNKNOWN

§ Identity

Operator
Country
US
Launch date
2021-09-14
Launch site
AFWTR
Launch vehicle
Mass (kg)
RCS (m²)

Purposes: comms

External: N2YO · Heavens-Above · Gunter

§ Orbital elements

Epoch: 2026-09-20T04:00:03.000096Z

Period
92.42 min
Inclination
69.9995°
Eccentricity
0.0003500
Mean motion
15.58083156 rev/d
Perigee alt
390.8 km
Apogee alt
395.6 km
Semi-major
6,771.3 km
B*
1.9556e-3
RAAN
110.5996°
Arg perigee
273.9941°
Mean anomaly
78.6105°
Rev number
593

§ Raw data

STARLINK-30571 49139U 21082K   26263.16670139  .00150152  00000+0  19556-2 0  99922 49139  69.9995 110.5996 0003500 273.9941  78.6105 15.58083156  5935

JSON: /api/v1/satellites/49139 · /tle

For live sub-satellite position, see the globe view (requires WebGL).

§ Visibility from observer

Set your observer location to see the next 7 days of passes ≥ 10°. The values pass through the URL so the page stays shareable.

No JS? Fill the form by hand. The geolocation button needs JavaScript.